AEE218 LIRN-LGAV

Flight info

Callsign AEE218
Flight time 1h 13m
Altitude 33000
Route POLIT DCT GEMVI DCT RUTOM UN604 ARA UB34 NEMES
Aircraft A320/M-SDE3FGHIRWY/LB1

Departure

Time 2026-05-04 16:53
Airport Naples International Airport (LIRN)

Arrival

Time 2026-05-04 18:06
Airport Athens Eleftherios Venizelos International Airport (LGAV)
Time Latitude Longitude Altitude Speed Heading
2026-05-04 16:15 40.87840 14.28088 295 ft 0 kts 140°
2026-05-04 16:42 40.87884 14.28030 298 ft 4 kts 108°
2026-05-04 16:43 40.87879 14.27990 297 ft 0 kts 51°
2026-05-04 16:47 40.87912 14.28042 297 ft 13 kts 51°
2026-05-04 16:47 40.88049 14.28199 292 ft 8 kts 58°
2026-05-04 16:48 40.88046 14.28600 287 ft 16 kts 69°
2026-05-04 16:48 40.88119 14.28732 280 ft 20 kts 52°
2026-05-04 16:49 40.88296 14.29041 273 ft 23 kts 53°
2026-05-04 16:49 40.88479 14.29360 264 ft 24 kts 52°
2026-05-04 16:50 40.88687 14.29716 254 ft 25 kts 52°
2026-05-04 16:50 40.88894 14.30078 242 ft 26 kts 52°
2026-05-04 16:51 40.89072 14.30233 236 ft 14 kts 330°
2026-05-04 16:51 40.89108 14.30154 238 ft 10 kts 256°
2026-05-04 16:51 40.89101 14.30135 240 ft 0 kts 242°
2026-05-04 16:52 40.88722 14.29322 261 ft 111 kts 238°
2026-05-04 16:52 40.88248 14.28284 363 ft 145 kts 239°
2026-05-04 16:53 40.86963 14.26369 1482 ft 147 kts 194°
2026-05-04 16:53 40.83593 14.26780 2495 ft 189 kts 172°
2026-05-04 16:54 40.82266 14.26985 2981 ft 194 kts 173°
2026-05-04 16:55 40.76927 14.27772 5445 ft 194 kts 174°
2026-05-04 16:55 40.74189 14.28165 6541 ft 202 kts 174°
2026-05-04 16:56 40.71365 14.28574 7613 ft 206 kts 173°
2026-05-04 16:56 40.66731 14.30256 8504 ft 266 kts 165°
2026-05-04 16:57 40.64863 14.30970 8988 ft 283 kts 164°
2026-05-04 16:57 40.61028 14.32439 10365 ft 297 kts 165°
2026-05-04 16:58 40.55165 14.36992 11204 ft 356 kts 139°
2026-05-04 16:58 40.53292 14.39163 11813 ft 362 kts 139°
2026-05-04 16:59 40.49463 14.43603 13030 ft 372 kts 140°
2026-05-04 17:00 40.41477 14.52772 15292 ft 389 kts 140°
2026-05-04 17:00 40.35266 14.59879 16892 ft 400 kts 140°
2026-05-04 17:01 40.31030 14.64717 17980 ft 407 kts 140°
2026-05-04 17:01 40.26718 14.69625 18993 ft 414 kts 140°
2026-05-04 17:02 40.22358 14.74585 19951 ft 421 kts 140°
2026-05-04 17:02 40.17892 14.79660 20899 ft 428 kts 140°
2026-05-04 17:03 40.15781 14.82435 21301 ft 433 kts 130°
2026-05-04 17:03 40.14037 14.85665 21715 ft 437 kts 119°
2026-05-04 17:03 40.11510 14.92933 22585 ft 443 kts 112°
2026-05-04 17:04 40.09043 15.00368 23423 ft 449 kts 112°
2026-05-04 17:04 40.06529 15.07893 24139 ft 456 kts 112°
2026-05-04 17:05 40.03978 15.15535 24776 ft 463 kts 112°
2026-05-04 17:05 40.01397 15.23248 25381 ft 470 kts 112°
2026-05-04 17:06 39.98761 15.31110 25986 ft 477 kts 112°
2026-05-04 17:06 39.97422 15.35093 26284 ft 480 kts 112°
2026-05-04 17:07 39.94720 15.43120 26902 ft 487 kts 112°
2026-05-04 17:07 39.94259 15.44483 27006 ft 488 kts 112°
2026-05-04 17:07 39.91973 15.51253 27517 ft 494 kts 112°
2026-05-04 17:07 39.90585 15.55368 27820 ft 497 kts 112°
2026-05-04 17:08 39.89189 15.59500 28116 ft 501 kts 112°
2026-05-04 17:08 39.86838 15.66426 28632 ft 506 kts 111°
2026-05-04 17:08 39.85414 15.70611 29063 ft 505 kts 111°
2026-05-04 17:09 39.83987 15.74789 29505 ft 505 kts 111°
2026-05-04 17:09 39.82559 15.78963 29933 ft 506 kts 111°
2026-05-04 17:09 39.81127 15.83154 30301 ft 507 kts 111°
2026-05-04 17:10 39.78259 15.91541 31016 ft 508 kts 111°
2026-05-04 17:10 39.73945 16.04086 32323 ft 505 kts 111°
2026-05-04 17:11 39.72509 16.08247 32743 ft 503 kts 111°
2026-05-04 17:11 39.71079 16.12393 33062 ft 503 kts 111°
2026-05-04 17:12 39.66786 16.24813 33130 ft 502 kts 111°
2026-05-04 17:13 39.59587 16.45437 33128 ft 501 kts 111°
2026-05-04 17:14 39.53856 16.61840 33121 ft 501 kts 112°
2026-05-04 17:15 39.49506 16.74156 33118 ft 500 kts 112°
2026-05-04 17:16 39.43726 16.90515 33115 ft 499 kts 112°
2026-05-04 17:17 39.37921 17.06814 33137 ft 499 kts 112°
2026-05-04 17:18 39.32128 17.22984 33119 ft 497 kts 112°
2026-05-04 17:19 39.26304 17.39166 33120 ft 497 kts 112°
2026-05-04 17:20 39.20465 17.55329 33120 ft 497 kts 112°
2026-05-04 17:20 39.16060 17.67421 33131 ft 497 kts 112°
2026-05-04 17:21 39.09912 17.83332 33128 ft 496 kts 121°
2026-05-04 17:22 39.06226 17.90842 33133 ft 498 kts 120°
2026-05-04 17:23 38.98834 18.05913 33133 ft 500 kts 120°
2026-05-04 17:24 38.93247 18.17232 33136 ft 500 kts 121°
2026-05-04 17:25 38.85781 18.32319 33138 ft 500 kts 121°
2026-05-04 17:26 38.78330 18.47309 33133 ft 497 kts 121°
2026-05-04 17:27 38.68982 18.65992 33143 ft 500 kts 121°
2026-05-04 17:28 38.61450 18.80970 33154 ft 498 kts 121°
2026-05-04 17:29 38.51311 19.03673 33142 ft 487 kts 101°
2026-05-04 17:31 38.47928 19.24672 33148 ft 481 kts 97°
2026-05-04 17:32 38.44572 19.45561 33144 ft 480 kts 98°
2026-05-04 17:33 38.41875 19.62181 33144 ft 480 kts 97°
2026-05-04 17:34 38.39153 19.78847 33141 ft 480 kts 97°
2026-05-04 17:35 38.35683 19.99738 33144 ft 483 kts 97°
2026-05-04 17:36 38.34295 20.08058 33144 ft 483 kts 97°
2026-05-04 17:36 38.32901 20.16422 33151 ft 483 kts 97°
2026-05-04 17:37 38.31486 20.24807 33140 ft 485 kts 97°
2026-05-04 17:37 38.30244 20.33231 33138 ft 483 kts 94°
2026-05-04 17:38 38.29247 20.41681 33148 ft 482 kts 93°
2026-05-04 17:38 38.28251 20.50136 33141 ft 483 kts 93°
2026-05-04 17:39 38.26617 20.62791 33139 ft 483 kts 94°
2026-05-04 17:39 38.25494 20.71223 33138 ft 483 kts 94°
2026-05-04 17:40 38.24388 20.79613 33139 ft 483 kts 94°
2026-05-04 17:40 38.23283 20.88045 33141 ft 483 kts 94°
2026-05-04 17:41 38.22173 20.96472 33144 ft 483 kts 94°
2026-05-04 17:41 38.21052 21.04891 33142 ft 483 kts 94°
2026-05-04 17:42 38.19918 21.13302 33140 ft 483 kts 94°
2026-05-04 17:42 38.18780 21.21723 33146 ft 482 kts 93°
2026-05-04 17:43 38.17651 21.30078 33137 ft 482 kts 93°
2026-05-04 17:43 38.16513 21.38472 33138 ft 482 kts 94°
2026-05-04 17:44 38.14461 21.46673 33139 ft 495 kts 111°
2026-05-04 17:44 38.11408 21.54515 33142 ft 495 kts 111°
2026-05-04 17:45 38.08369 21.62366 33159 ft 495 kts 111°
2026-05-04 17:45 38.05327 21.70216 33156 ft 496 kts 111°
2026-05-04 17:46 38.02277 21.78059 33155 ft 496 kts 111°
2026-05-04 17:46 37.99213 21.85893 33157 ft 496 kts 112°
2026-05-04 17:47 37.96140 21.93734 33161 ft 496 kts 112°
2026-05-04 17:47 37.94604 21.97643 32950 ft 496 kts 112°
2026-05-04 17:47 37.93061 22.01571 32060 ft 501 kts 112°
2026-05-04 17:48 37.91502 22.05542 31178 ft 505 kts 112°
2026-05-04 17:48 37.89933 22.09532 30355 ft 508 kts 112°
2026-05-04 17:48 37.88375 22.13490 29446 ft 510 kts 112°
2026-05-04 17:48 37.86795 22.17487 28797 ft 506 kts 112°
2026-05-04 17:49 37.85221 22.21449 28194 ft 501 kts 112°
2026-05-04 17:49 37.83663 22.25358 27613 ft 496 kts 112°
2026-05-04 17:49 37.82120 22.29235 27026 ft 491 kts 112°
2026-05-04 17:49 37.80595 22.33074 26469 ft 486 kts 112°
2026-05-04 17:50 37.79089 22.36865 25925 ft 481 kts 112°
2026-05-04 17:50 37.77597 22.40625 25370 ft 476 kts 112°
2026-05-04 17:50 37.76396 22.44459 24831 ft 463 kts 99°
2026-05-04 17:50 37.75954 22.48421 24321 ft 449 kts 85°
2026-05-04 17:51 37.75892 22.52354 23699 ft 447 kts 84°
2026-05-04 17:51 37.75846 22.56260 22960 ft 443 kts 84°
2026-05-04 17:51 37.75807 22.60141 22281 ft 439 kts 84°
2026-05-04 17:51 37.75773 22.63979 21675 ft 435 kts 84°
2026-05-04 17:52 37.75738 22.67782 21117 ft 431 kts 84°
2026-05-04 17:52 37.75697 22.71546 20611 ft 426 kts 84°
2026-05-04 17:52 37.75652 22.75273 20061 ft 423 kts 84°
2026-05-04 17:52 37.75605 22.78976 19504 ft 421 kts 86°
2026-05-04 17:53 37.75559 22.82661 18893 ft 418 kts 88°
2026-05-04 17:53 37.75513 22.86306 18211 ft 408 kts 88°
2026-05-04 17:53 37.75465 22.89829 17473 ft 395 kts 88°
2026-05-04 17:53 37.75417 22.93265 16798 ft 388 kts 88°
2026-05-04 17:54 37.75370 22.96602 16114 ft 381 kts 88°
2026-05-04 17:54 37.75323 22.99972 15428 ft 376 kts 89°
2026-05-04 17:54 37.75279 23.03223 14758 ft 375 kts 89°
2026-05-04 17:54 37.75233 23.06510 14081 ft 370 kts 89°
2026-05-04 17:55 37.75187 23.09704 13348 ft 360 kts 89°
2026-05-04 17:55 37.75141 23.12858 12624 ft 359 kts 88°
2026-05-04 17:55 37.75097 23.16017 11912 ft 360 kts 88°
2026-05-04 17:55 37.75051 23.19180 11255 ft 359 kts 88°
2026-05-04 17:56 37.75001 23.22314 10747 ft 353 kts 88°
2026-05-04 17:56 37.74947 23.25340 10332 ft 334 kts 88°
2026-05-04 17:56 37.74891 23.28192 9970 ft 316 kts 88°
2026-05-04 17:56 37.74840 23.30890 9639 ft 299 kts 87°
2026-05-04 17:57 37.74793 23.33464 9342 ft 289 kts 87°
2026-05-04 17:57 37.74750 23.35998 9000 ft 287 kts 87°
2026-05-04 17:57 37.74711 23.38509 8660 ft 285 kts 86°
2026-05-04 17:57 37.74673 23.41007 8326 ft 284 kts 86°
2026-05-04 17:58 37.74633 23.43502 8010 ft 284 kts 86°
2026-05-04 17:58 37.74592 23.46006 7684 ft 285 kts 86°
2026-05-04 17:58 37.74548 23.48475 7363 ft 284 kts 86°
2026-05-04 17:58 37.74502 23.50962 7055 ft 282 kts 86°
2026-05-04 17:59 37.74456 23.53435 6721 ft 282 kts 86°
2026-05-04 17:59 37.74409 23.55909 6369 ft 282 kts 86°
2026-05-04 17:59 37.74309 23.60752 5703 ft 268 kts 86°
2026-05-04 18:00 37.74261 23.63097 5409 ft 266 kts 87°
2026-05-04 18:00 37.74215 23.65428 5107 ft 264 kts 86°
2026-05-04 18:00 37.74332 23.67724 4803 ft 260 kts 77°
2026-05-04 18:00 37.74523 23.69212 4595 ft 259 kts 76°
2026-05-04 18:01 37.74846 23.71448 4296 ft 259 kts 75°
2026-05-04 18:01 37.75183 23.73679 3990 ft 258 kts 75°
2026-05-04 18:01 37.75784 23.75771 3692 ft 251 kts 56°
2026-05-04 18:02 37.78244 23.78711 3091 ft 238 kts 34°
2026-05-04 18:02 37.79532 23.79927 3000 ft 225 kts 34°
2026-05-04 18:02 37.80783 23.81108 2995 ft 224 kts 34°
2026-05-04 18:02 37.82021 23.82280 2806 ft 220 kts 34°
2026-05-04 18:03 37.83240 23.83434 2541 ft 217 kts 35°
2026-05-04 18:03 37.84443 23.84574 2261 ft 212 kts 36°
2026-05-04 18:03 37.85581 23.85653 1969 ft 195 kts 36°
2026-05-04 18:03 37.86620 23.86637 1747 ft 178 kts 36°
2026-05-04 18:04 37.87574 23.87542 1499 ft 163 kts 36°
2026-05-04 18:04 37.88424 23.88348 1281 ft 150 kts 36°
2026-05-04 18:04 37.90051 23.89880 918 ft 144 kts 38°
2026-05-04 18:05 37.90839 23.90647 679 ft 142 kts 39°
2026-05-04 18:05 37.91628 23.91398 515 ft 142 kts 39°
2026-05-04 18:05 37.92419 23.92143 373 ft 142 kts 38°
2026-05-04 18:05 37.93189 23.92879 290 ft 126 kts 38°
2026-05-04 18:06 37.93878 23.93581 294 ft 16 kts 63°
2026-05-04 18:06 37.93931 23.93710 299 ft 16 kts 62°
2026-05-04 18:06 37.93980 23.93839 301 ft 17 kts 65°
2026-05-04 18:07 37.94041 23.93964 300 ft 18 kts 44°
2026-05-04 18:07 37.94134 23.94055 302 ft 17 kts 47°
2026-05-04 18:07 37.94228 23.94155 301 ft 19 kts 30°
2026-05-04 18:07 37.94344 23.94251 302 ft 21 kts 36°
2026-05-04 18:08 37.94464 23.94368 304 ft 22 kts 38°
2026-05-04 18:08 37.94571 23.94472 302 ft 18 kts 36°
2026-05-04 18:08 37.94663 23.94556 304 ft 17 kts 40°
2026-05-04 18:08 37.94647 23.94690 301 ft 19 kts 128°
2026-05-04 18:09 37.94520 23.94903 301 ft 17 kts 126°
2026-05-04 18:09 37.94369 23.95158 304 ft 17 kts 128°
2026-05-04 18:10 37.94304 23.95264 301 ft 16 kts 127°
2026-05-04 18:10 37.94231 23.95387 301 ft 19 kts 127°
2026-05-04 18:10 37.94163 23.95501 301 ft 13 kts 127°
2026-05-04 18:10 37.94141 23.95599 299 ft 13 kts 64°
2026-05-04 18:11 37.94192 23.95653 303 ft 9 kts 38°
2026-05-04 18:11 37.94264 23.95720 299 ft 13 kts 35°
2026-05-04 18:11 37.94334 23.95716 302 ft 12 kts 311°
2026-05-04 18:11 37.94390 23.95626 301 ft 14 kts 307°
2026-05-04 18:12 37.94436 23.95566 301 ft 5 kts
2026-05-04 18:12 37.94475 23.95597 302 ft 6 kts 36°
2026-05-04 18:12 37.94478 23.95600 302 ft 0 kts 37°